JAL2411 RJOO-RJFK

Flight info

Callsign JAL2411
Flight time 0h 55m
Altitude 30000
Route TIGER MAIKO AWAJI Y232 KRE Y756 VIRUD Y757 SPICA
Aircraft B738/M-SDE2E3FGHIRWXY/LB1

Departure

Time 2026-04-27 12:08
Airport Osaka Itami International Airport (RJOO)

Arrival

Time 2026-04-27 13:03
Airport Kagoshima Airport (RJFK)
Time Latitude Longitude Altitude Speed Heading
2026-04-27 11:50 34.79270 135.43709 47 ft 0 kts 160°
2026-04-27 11:59 34.79281 135.43704 45 ft 4 kts 160°
2026-04-27 11:59 34.79306 135.43693 46 ft 4 kts 167°
2026-04-27 11:59 34.79331 135.43693 47 ft 4 kts 206°
2026-04-27 12:00 34.79346 135.43707 47 ft 0 kts 235°
2026-04-27 12:02 34.79343 135.43703 45 ft 2 kts 235°
2026-04-27 12:02 34.79322 135.43665 47 ft 9 kts 235°
2026-04-27 12:03 34.79273 135.43582 47 ft 15 kts 215°
2026-04-27 12:03 34.79165 135.43615 46 ft 20 kts 134°
2026-04-27 12:03 34.79047 135.43728 47 ft 23 kts 172°
2026-04-27 12:03 34.78910 135.43797 46 ft 22 kts 134°
2026-04-27 12:04 34.78803 135.43929 47 ft 22 kts 134°
2026-04-27 12:04 34.78698 135.44055 47 ft 21 kts 136°
2026-04-27 12:04 34.78596 135.44177 47 ft 20 kts 134°
2026-04-27 12:04 34.78499 135.44297 47 ft 20 kts 137°
2026-04-27 12:05 34.78374 135.44335 49 ft 19 kts 182°
2026-04-27 12:05 34.78243 135.44334 46 ft 18 kts 179°
2026-04-27 12:05 34.78131 135.44391 48 ft 19 kts 134°
2026-04-27 12:05 34.78025 135.44518 48 ft 25 kts 135°
2026-04-27 12:06 34.77878 135.44696 47 ft 32 kts 135°
2026-04-27 12:06 34.77719 135.44884 47 ft 31 kts 142°
2026-04-27 12:06 34.77538 135.45000 46 ft 29 kts 157°
2026-04-27 12:06 34.77437 135.44915 50 ft 14 kts 308°
2026-04-27 12:07 34.77517 135.44825 49 ft 25 kts 315°
2026-04-27 12:07 34.77813 135.44467 47 ft 95 kts 315°
2026-04-27 12:07 34.78431 135.43714 50 ft 154 kts 314°
2026-04-27 12:07 34.79236 135.42747 570 ft 163 kts 316°
2026-04-27 12:08 34.79884 135.41619 1241 ft 169 kts 279°
2026-04-27 12:08 34.79655 135.40218 1888 ft 177 kts 247°
2026-04-27 12:08 34.78990 135.38820 2131 ft 206 kts 224°
2026-04-27 12:08 34.77631 135.38096 2316 ft 229 kts 181°
2026-04-27 12:09 34.76057 135.38549 2611 ft 246 kts 162°
2026-04-27 12:09 34.74317 135.38617 2907 ft 260 kts 197°
2026-04-27 12:09 34.72576 135.37970 3649 ft 263 kts 198°
2026-04-27 12:09 34.70791 135.37397 4373 ft 268 kts 196°
2026-04-27 12:10 34.68957 135.36856 5064 ft 274 kts 196°
2026-04-27 12:10 34.67108 135.36253 5758 ft 276 kts 207°
2026-04-27 12:10 34.65596 135.34876 6439 ft 272 kts 236°
2026-04-27 12:10 34.64796 135.32839 7138 ft 268 kts 261°
2026-04-27 12:11 34.64803 135.30603 7830 ft 267 kts 284°
2026-04-27 12:11 34.65551 135.28545 8488 ft 270 kts 306°
2026-04-27 12:11 34.66428 135.26535 9132 ft 274 kts 284°
2026-04-27 12:11 34.66795 135.24254 9842 ft 277 kts 282°
2026-04-27 12:12 34.67180 135.22030 10351 ft 285 kts 283°
2026-04-27 12:12 34.67623 135.19634 10789 ft 295 kts 283°
2026-04-27 12:12 34.67777 135.17174 11414 ft 299 kts 264°
2026-04-27 12:12 34.67217 135.14757 12194 ft 299 kts 247°
2026-04-27 12:13 34.66311 135.12482 12996 ft 299 kts 245°
2026-04-27 12:13 34.65369 135.10215 13756 ft 301 kts 245°
2026-04-27 12:13 34.64432 135.07941 14473 ft 301 kts 246°
2026-04-27 12:13 34.63501 135.05654 15198 ft 302 kts 246°
2026-04-27 12:14 34.62573 135.03358 15911 ft 303 kts 246°
2026-04-27 12:14 34.61627 135.01056 16629 ft 306 kts 243°
2026-04-27 12:14 34.60280 134.99020 17300 ft 315 kts 226°
2026-04-27 12:14 34.58517 134.97397 18045 ft 320 kts 221°
2026-04-27 12:15 34.56692 134.95878 18657 ft 323 kts 220°
2026-04-27 12:15 34.54818 134.94353 19270 ft 325 kts 221°
2026-04-27 12:15 34.52936 134.92819 19903 ft 325 kts 221°
2026-04-27 12:15 34.51060 134.91280 20511 ft 327 kts 222°
2026-04-27 12:16 34.49170 134.89719 21117 ft 329 kts 222°
2026-04-27 12:16 34.47280 134.88151 21700 ft 330 kts 223°
2026-04-27 12:16 34.45383 134.86574 22283 ft 332 kts 223°
2026-04-27 12:16 34.43472 134.84984 22845 ft 334 kts 223°
2026-04-27 12:17 34.41551 134.83385 23381 ft 336 kts 224°
2026-04-27 12:17 34.39621 134.81779 23854 ft 337 kts 224°
2026-04-27 12:17 34.37682 134.80167 24327 ft 339 kts 224°
2026-04-27 12:17 34.35757 134.78567 24786 ft 340 kts 225°
2026-04-27 12:18 34.33800 134.76941 25222 ft 342 kts 225°
2026-04-27 12:18 34.31834 134.75309 25674 ft 343 kts 225°
2026-04-27 12:18 34.29859 134.73671 26122 ft 344 kts 225°
2026-04-27 12:18 34.27903 134.72005 26565 ft 342 kts 229°
2026-04-27 12:19 34.26152 134.70113 26998 ft 334 kts 236°
2026-04-27 12:19 34.24637 134.68004 27410 ft 332 kts 239°
2026-04-27 12:19 34.23153 134.65857 27797 ft 334 kts 239°
2026-04-27 12:19 34.21662 134.63692 28185 ft 335 kts 239°
2026-04-27 12:20 34.20165 134.61522 28597 ft 336 kts 239°
2026-04-27 12:20 34.18687 134.59388 28986 ft 338 kts 239°
2026-04-27 12:20 34.17164 134.57192 29308 ft 341 kts 239°
2026-04-27 12:20 34.15636 134.54997 29672 ft 342 kts 239°
2026-04-27 12:21 34.14097 134.52791 29972 ft 345 kts 239°
2026-04-27 12:21 34.10935 134.48256 29962 ft 360 kts 238°
2026-04-27 12:22 34.07647 134.43554 29977 ft 373 kts 238°
2026-04-27 12:22 34.04257 134.38720 29970 ft 385 kts 238°
2026-04-27 12:23 34.01005 134.34083 29920 ft 392 kts 238°
2026-04-27 12:23 33.97444 134.29021 30010 ft 399 kts 238°
2026-04-27 12:24 33.93808 134.23864 29995 ft 407 kts 237°
2026-04-27 12:24 33.90132 134.18663 29979 ft 413 kts 237°
2026-04-27 12:25 33.86325 134.13460 29990 ft 415 kts 236°
2026-04-27 12:25 33.82478 134.08268 29984 ft 416 kts 236°
2026-04-27 12:26 33.78639 134.03076 30017 ft 414 kts 236°
2026-04-27 12:26 33.74841 133.97935 29957 ft 408 kts 236°
2026-04-27 12:27 33.71096 133.92845 29876 ft 412 kts 236°
2026-04-27 12:27 33.69193 133.90263 29563 ft 414 kts 236°
2026-04-27 12:27 33.67282 133.87682 29288 ft 411 kts 236°
2026-04-27 12:27 33.65385 133.85125 28994 ft 409 kts 236°
2026-04-27 12:28 33.63484 133.82560 28744 ft 413 kts 236°
2026-04-27 12:28 33.61568 133.79974 28473 ft 416 kts 236°
2026-04-27 12:28 33.59643 133.77374 28215 ft 418 kts 236°
2026-04-27 12:28 33.57707 133.74763 28024 ft 419 kts 235°
2026-04-27 12:29 33.55767 133.72151 27979 ft 419 kts 235°
2026-04-27 12:29 33.53832 133.69549 27973 ft 417 kts 235°
2026-04-27 12:29 33.51903 133.66958 27956 ft 417 kts 235°
2026-04-27 12:29 33.49970 133.64361 27962 ft 417 kts 235°
2026-04-27 12:30 33.48038 133.61767 27961 ft 417 kts 235°
2026-04-27 12:30 33.46102 133.59169 27970 ft 418 kts 235°
2026-04-27 12:30 33.44164 133.56570 27970 ft 418 kts 235°
2026-04-27 12:30 33.42223 133.53969 27969 ft 418 kts 235°
2026-04-27 12:31 33.40308 133.51405 27969 ft 419 kts 235°
2026-04-27 12:31 33.38367 133.48808 27960 ft 419 kts 235°
2026-04-27 12:31 33.36441 133.46234 27968 ft 419 kts 235°
2026-04-27 12:31 33.34494 133.43633 27968 ft 419 kts 235°
2026-04-27 12:32 33.32544 133.41030 27967 ft 420 kts 234°
2026-04-27 12:32 33.30597 133.38433 27964 ft 420 kts 234°
2026-04-27 12:32 33.28639 133.35823 27964 ft 420 kts 234°
2026-04-27 12:32 33.26688 133.33224 27976 ft 420 kts 234°
2026-04-27 12:33 33.24735 133.30624 27969 ft 421 kts 234°
2026-04-27 12:33 33.22777 133.28020 27970 ft 421 kts 234°
2026-04-27 12:33 33.20822 133.25421 27971 ft 421 kts 234°
2026-04-27 12:33 33.18862 133.22818 27971 ft 421 kts 234°
2026-04-27 12:34 33.16905 133.20221 27977 ft 421 kts 234°
2026-04-27 12:34 33.14945 133.17621 27973 ft 422 kts 234°
2026-04-27 12:34 33.12981 133.15019 27952 ft 421 kts 234°
2026-04-27 12:34 33.11020 133.12423 27980 ft 421 kts 234°
2026-04-27 12:35 33.09059 133.09828 27968 ft 422 kts 234°
2026-04-27 12:35 33.07094 133.07228 27977 ft 422 kts 234°
2026-04-27 12:35 33.05124 133.04624 27974 ft 423 kts 234°
2026-04-27 12:35 33.03154 133.02021 27964 ft 423 kts 234°
2026-04-27 12:36 33.01183 132.99420 27974 ft 423 kts 234°
2026-04-27 12:36 32.99234 132.96850 27980 ft 423 kts 234°
2026-04-27 12:36 32.97255 132.94242 27968 ft 423 kts 234°
2026-04-27 12:36 32.95275 132.91636 27975 ft 423 kts 234°
2026-04-27 12:37 32.93302 132.89039 27976 ft 424 kts 234°
2026-04-27 12:37 32.91318 132.86430 27976 ft 424 kts 234°
2026-04-27 12:37 32.89341 132.83833 27973 ft 424 kts 234°
2026-04-27 12:37 32.87363 132.81234 27988 ft 424 kts 234°
2026-04-27 12:38 32.85375 132.78626 27974 ft 425 kts 234°
2026-04-27 12:38 32.83390 132.76021 27976 ft 425 kts 234°
2026-04-27 12:38 32.81407 132.73422 27972 ft 425 kts 234°
2026-04-27 12:38 32.79473 132.70894 27981 ft 425 kts 233°
2026-04-27 12:39 32.77361 132.68400 27981 ft 428 kts 230°
2026-04-27 12:39 32.75179 132.65991 27979 ft 428 kts 229°
2026-04-27 12:39 32.73013 132.63625 27975 ft 428 kts 229°
2026-04-27 12:39 32.70820 132.61231 27976 ft 428 kts 229°
2026-04-27 12:40 32.68625 132.58829 27976 ft 428 kts 229°
2026-04-27 12:40 32.66439 132.56432 27976 ft 428 kts 229°
2026-04-27 12:40 32.64251 132.54027 27979 ft 428 kts 229°
2026-04-27 12:40 32.62064 132.51621 27979 ft 428 kts 229°
2026-04-27 12:41 32.59882 132.49222 27985 ft 428 kts 229°
2026-04-27 12:41 32.57695 132.46818 27976 ft 429 kts 229°
2026-04-27 12:41 32.55505 132.44412 27991 ft 429 kts 229°
2026-04-27 12:41 32.53313 132.42006 27991 ft 430 kts 229°
2026-04-27 12:42 32.51119 132.39600 27990 ft 430 kts 229°
2026-04-27 12:42 32.48922 132.37192 27991 ft 431 kts 229°
2026-04-27 12:42 32.46721 132.34782 27989 ft 431 kts 229°
2026-04-27 12:42 32.44514 132.32367 27988 ft 432 kts 229°
2026-04-27 12:43 32.42339 132.29988 27988 ft 432 kts 229°
2026-04-27 12:43 32.40130 132.27574 27989 ft 432 kts 229°
2026-04-27 12:43 32.37927 132.25144 27987 ft 431 kts 231°
2026-04-27 12:43 32.35938 132.22514 27986 ft 426 kts 237°
2026-04-27 12:44 32.34297 132.19623 27994 ft 422 kts 243°
2026-04-27 12:44 32.32787 132.16650 27985 ft 422 kts 243°
2026-04-27 12:44 32.31261 132.13664 27444 ft 430 kts 243°
2026-04-27 12:44 32.29748 132.10730 26703 ft 427 kts 242°
2026-04-27 12:45 32.28193 132.07735 25808 ft 428 kts 242°
2026-04-27 12:45 32.26637 132.04751 24868 ft 429 kts 242°
2026-04-27 12:45 32.25078 132.01769 24178 ft 424 kts 241°
2026-04-27 12:45 32.23556 131.98860 23562 ft 419 kts 241°
2026-04-27 12:46 32.22033 131.95951 22844 ft 414 kts 241°
2026-04-27 12:46 32.20533 131.93086 22235 ft 407 kts 241°
2026-04-27 12:46 32.19054 131.90259 21634 ft 401 kts 241°
2026-04-27 12:46 32.17641 131.87561 21037 ft 396 kts 241°
2026-04-27 12:47 32.16197 131.84806 20397 ft 392 kts 242°
2026-04-27 12:47 32.14766 131.82081 19847 ft 388 kts 242°
2026-04-27 12:47 32.13355 131.79396 19429 ft 382 kts 242°
2026-04-27 12:47 32.11940 131.76699 18994 ft 391 kts 242°
2026-04-27 12:48 32.10495 131.73943 18555 ft 398 kts 242°
2026-04-27 12:48 32.09034 131.71162 18057 ft 398 kts 241°
2026-04-27 12:48 32.07577 131.68395 17573 ft 394 kts 241°
2026-04-27 12:48 32.06135 131.65660 17117 ft 390 kts 241°
2026-04-27 12:49 32.04707 131.62950 16670 ft 388 kts 241°
2026-04-27 12:49 32.03303 131.60286 16245 ft 387 kts 241°
2026-04-27 12:49 32.01884 131.57595 15811 ft 386 kts 241°
2026-04-27 12:49 32.00468 131.54912 15385 ft 386 kts 240°
2026-04-27 12:50 31.99051 131.52229 14948 ft 386 kts 240°
2026-04-27 12:50 31.97629 131.49537 14521 ft 385 kts 240°
2026-04-27 12:50 31.96698 131.47779 14223 ft 377 kts 240°
2026-04-27 12:50 31.95338 131.45213 13757 ft 361 kts 240°
2026-04-27 12:51 31.94036 131.42761 13311 ft 345 kts 240°
2026-04-27 12:51 31.92375 131.39649 12776 ft 327 kts 240°
2026-04-27 12:51 31.91584 131.38169 12527 ft 318 kts 240°
2026-04-27 12:51 31.90045 131.35289 12058 ft 303 kts 240°
2026-04-27 12:52 31.89312 131.33917 11836 ft 296 kts 240°
2026-04-27 12:52 31.88230 131.31894 11510 ft 287 kts 240°
2026-04-27 12:52 31.87183 131.29933 11189 ft 279 kts 240°
2026-04-27 12:52 31.86166 131.28033 10889 ft 271 kts 240°
2026-04-27 12:53 31.84191 131.24337 10302 ft 264 kts 240°
2026-04-27 12:53 31.83229 131.22538 10022 ft 263 kts 240°
2026-04-27 12:53 31.82242 131.20695 9702 ft 263 kts 240°
2026-04-27 12:54 31.81276 131.18893 9403 ft 263 kts 239°
2026-04-27 12:54 31.80297 131.17064 9105 ft 267 kts 239°
2026-04-27 12:54 31.79293 131.15190 8789 ft 273 kts 239°
2026-04-27 12:54 31.78278 131.13299 8462 ft 273 kts 239°
2026-04-27 12:55 31.77261 131.11406 8166 ft 273 kts 239°
2026-04-27 12:55 31.76248 131.09522 7855 ft 273 kts 238°
2026-04-27 12:55 31.75245 131.07657 7563 ft 272 kts 238°
2026-04-27 12:55 31.74232 131.05770 7255 ft 272 kts 238°
2026-04-27 12:56 31.73222 131.03889 6953 ft 272 kts 238°
2026-04-27 12:56 31.72215 131.02015 6643 ft 269 kts 238°
2026-04-27 12:56 31.71242 131.00203 6329 ft 262 kts 238°
2026-04-27 12:56 31.70280 130.98413 6016 ft 256 kts 238°
2026-04-27 12:57 31.69341 130.96666 5711 ft 250 kts 238°
2026-04-27 12:57 31.68424 130.94965 5441 ft 243 kts 238°
2026-04-27 12:57 31.67528 130.93301 5163 ft 237 kts 238°
2026-04-27 12:57 31.66786 130.91609 4883 ft 232 kts 254°
2026-04-27 12:58 31.66457 130.89777 4649 ft 227 kts 258°
2026-04-27 12:58 31.66142 130.87974 4371 ft 222 kts 258°
2026-04-27 12:58 31.66017 130.86252 4131 ft 205 kts 281°
2026-04-27 12:58 31.66417 130.84776 3934 ft 187 kts 290°
2026-04-27 12:59 31.66842 130.83380 3724 ft 177 kts 289°
2026-04-27 12:59 31.67245 130.82052 3557 ft 171 kts 289°
2026-04-27 12:59 31.67808 130.80871 3433 ft 164 kts 320°
2026-04-27 12:59 31.68739 130.80108 3252 ft 166 kts 323°
2026-04-27 13:00 31.69638 130.79326 3047 ft 161 kts 324°
2026-04-27 13:00 31.70556 130.78611 2830 ft 157 kts 328°
2026-04-27 13:00 31.71486 130.77959 2645 ft 156 kts 329°
2026-04-27 13:00 31.72431 130.77314 2435 ft 156 kts 329°
2026-04-27 13:01 31.73370 130.76675 2227 ft 156 kts 329°
2026-04-27 13:01 31.74307 130.76038 2009 ft 155 kts 329°
2026-04-27 13:01 31.75244 130.75402 1824 ft 156 kts 329°
2026-04-27 13:01 31.76181 130.74763 1599 ft 156 kts 329°
2026-04-27 13:02 31.77113 130.74131 1379 ft 155 kts 328°
2026-04-27 13:02 31.78039 130.73492 1178 ft 154 kts 327°
2026-04-27 13:02 31.78974 130.72860 979 ft 156 kts 327°
2026-04-27 13:02 31.79880 130.72244 900 ft 132 kts 330°
2026-04-27 13:03 31.80483 130.71841 910 ft 70 kts 330°
2026-04-27 13:03 31.80737 130.71653 911 ft 32 kts 320°
2026-04-27 13:03 31.80851 130.71485 912 ft 20 kts 286°
2026-04-27 13:03 31.80766 130.71429 910 ft 20 kts 150°
2026-04-27 13:04 31.80643 130.71509 908 ft 20 kts 149°
2026-04-27 13:04 31.80523 130.71592 907 ft 20 kts 150°
2026-04-27 13:04 31.80403 130.71672 907 ft 20 kts 150°
2026-04-27 13:04 31.80287 130.71751 907 ft 19 kts 150°
2026-04-27 13:05 31.80175 130.71828 907 ft 18 kts 149°
2026-04-27 13:05 31.80093 130.71848 907 ft 11 kts 231°
2026-04-27 13:05 31.80060 130.71782 906 ft 5 kts 240°
2026-04-27 13:05 31.80044 130.71750 906 ft 4 kts 240°
2026-04-27 13:06 31.80039 130.71738 905 ft 1 kts 240°
2026-04-27 13:06 31.80037 130.71736 905 ft 0 kts 240°